Amateur Radio Satellites - All Passes

Search period start: 22 May 2013 11:51
Search period end: 23 May 2013 11:51
Location: Alberta Star Party, 51.6612°N, 112.9089°W

Satellite Date Start Highest point End Downlink Frequencies (MHz)
Time Altitude Azimuth
HO-68 22 May 12:15:56 12:22:55 58° 297° (WNW) 12:29:52 435.675 MHz FM
Uribyol 2 22 May 12:16:20 12:17:32 11° 46° (NE) 12:18:44 436.500 FM
Oscar 19 22 May 12:19:23 12:21:27 12° 48° (NE) 12:23:32 437.125 CW, 437.150 USB
MaSat-1 22 May 12:40:36 12:43:33 24° 252° (WSW) 12:46:01 437.345 MHz
UOSAT-12 22 May 12:42:03 12:46:19 43° 123° (ESE) 12:50:39 437.025 FM, 437.400 FM
JAS-2 22 May 12:47:44 12:54:25 41° 300° (WNW) 13:00:23 435.800 - 435.900 CW/SSB, 435.910 FM
OPAL 22 May 12:54:10 12:59:08 58° 294° (WNW) 13:04:00 ?
Oscar 16 22 May 12:56:01 13:00:10 25° 58° (ENE) 13:04:19 437.025 USB, Beacon 2401.1428
Oscar 11 22 May 12:58:27 13:01:45 21° 300° (WNW) 13:05:02 145.825 FM, Beacon 2401.500 USB
PCSat 22 May 13:00:27 13:03:44 16° 359° (N) 13:07:01 145.825 MHz
SO-50 22 May 13:00:56 13:04:29 20° 343° (NNW) 13:07:59 436.795 FM
AO-27 22 May 13:04:22 13:08:19 23° 56° (ENE) 13:12:18 436.795 MHz FM
ITAMSAT 1 22 May 13:10:54 13:15:01 25° 58° (ENE) 13:19:09 435.822 SSB
Saudisat 1A 22 May 13:19:30 13:23:36 30° 30° (NNE) 13:27:38 436.775 MHz
AO-7 22 May 13:29:27 13:32:15 12° 18° (NNE) 13:35:04 29.400 - 29.500 MHz
Sapphire 22 May 13:34:01 13:37:22 16° 6° (N) 13:40:44 437.095 MHz 1200 baud AX-25 AFSK
Uribyol 2 22 May 13:50:55 13:55:52 48° 66° (ENE) 14:00:53 436.500 FM
Oscar 19 22 May 13:54:43 13:59:47 57° 69° (ENE) 14:04:54 437.125 CW, 437.150 USB
Uosat F 22 May 13:57:20 13:59:22 12° 49° (NE) 14:01:23 435.120 FM
AO-Echo 22 May 14:02:42 14:06:23 23° 59° (ENE) 14:10:02 ?
HO-68 22 May 14:04:50 14:09:15 18° 319° (NW) 14:13:40 435.675 MHz FM
UOSAT-12 22 May 14:22:16 14:26:34 40° 324° (NW) 14:30:55 437.025 FM, 437.400 FM
Oscar 16 22 May 14:33:59 14:39:09 65° 258° (WSW) 14:44:21 437.025 USB, Beacon 2401.1428
JAS-2 22 May 14:34:33 14:37:30 13° 324° (NW) 14:40:21 435.800 - 435.900 CW/SSB, 435.910 FM
OPAL 22 May 14:34:51 14:37:04 13° 315° (NW) 14:39:15 ?
AO-27 22 May 14:42:13 14:47:24 72° 256° (WSW) 14:52:37 436.795 MHz FM
SO-50 22 May 14:43:36 14:46:43 17° 7° (N) 14:49:48 436.795 FM
PCSat 22 May 14:44:53 14:49:10 23° 25° (NNE) 14:53:26 145.825 MHz
TMSAT-1 22 May 14:45:28 14:48:56 18° 53° (NE) 14:52:24 436.925 FM
ITAMSAT 1 22 May 14:49:00 14:54:09 65° 257° (WSW) 14:59:20 435.822 SSB
Saudisat 1A 22 May 14:59:07 15:03:42 69° 232° (SW) 15:08:10 436.775 MHz
Gurwin Techsat 1B 22 May 15:05:31 15:10:11 32° 61° (ENE) 15:14:52 435.225 FM
AO-7 22 May 15:15:41 15:22:20 28° 44° (NE) 15:29:01 29.400 - 29.500 MHz
Sapphire 22 May 15:17:53 15:22:37 29° 32° (NNE) 15:27:19 437.095 MHz 1200 baud AX-25 AFSK
Uribyol 2 22 May 15:31:04 15:35:35 30° 266° (W) 15:40:10 436.500 FM
Uosat F 22 May 15:32:19 15:37:13 59° 69° (ENE) 15:42:10 435.120 FM
Oscar 19 22 May 15:35:12 15:39:30 26° 268° (W) 15:43:50 437.125 CW, 437.150 USB
RS-15 22 May 15:36:06 15:43:35 20° 97° (E) 15:50:52 29.354 - 29.394 USB, Beacon 29.352 USB
AO-Echo 22 May 15:40:04 15:44:51 62° 258° (WSW) 15:49:34 ?
UOSAT-12 22 May 16:04:43 16:07:54 18° 347° (NNW) 16:11:06 437.025 FM, 437.400 FM
Oscar 16 22 May 16:18:24 16:19:34 11° 277° (W) 16:20:44 437.025 USB, Beacon 2401.1428
TMSAT-1 22 May 16:22:51 16:28:09 85° 73° (ENE) 16:33:30 436.925 FM
SO-50 22 May 16:24:29 16:28:41 33° 31° (NNE) 16:32:47 436.795 FM
AO-27 22 May 16:25:58 16:27:54 12° 276° (W) 16:29:50 436.795 MHz FM
PCSat 22 May 16:28:11 16:33:38 65° 48° (NE) 16:39:02 145.825 MHz
ITAMSAT 1 22 May 16:33:38 16:34:43 11° 277° (W) 16:35:49 435.822 SSB
Saudisat 1A 22 May 16:40:55 16:42:34 12° 251° (WSW) 16:44:12 436.775 MHz
Gurwin Techsat 1B 22 May 16:44:54 16:50:02 48° 261° (W) 16:55:11 435.225 FM
Sapphire 22 May 17:01:12 17:06:41 83° 234° (SW) 17:12:07 437.095 MHz 1200 baud AX-25 AFSK
AO-7 22 May 17:05:50 17:14:08 83° 67° (ENE) 17:22:31 29.400 - 29.500 MHz
Uosat F 22 May 17:12:29 17:16:26 23° 268° (W) 17:20:24 435.120 FM
RS-15 22 May 17:41:59 17:53:43 66° 121° (ESE) 18:04:58 29.354 - 29.394 USB, Beacon 29.352 USB
UOSAT-12 22 May 17:46:31 17:49:42 18° 12° (NNE) 17:52:53 437.025 FM, 437.400 FM
SO-50 22 May 18:05:05 18:09:36 60° 233° (SW) 18:14:02 436.795 FM
TMSAT-1 22 May 18:05:23 18:08:49 17° 273° (W) 18:12:16 436.925 FM
PCSat 22 May 18:12:10 18:16:42 28° 249° (WSW) 18:21:13 145.825 MHz
STRAND 1 22 May 18:29:58 18:31:51 12° 84° (E) 18:33:42 ?
JAS-1B 22 May 18:32:54 18:40:02 31° 55° (NE) 18:46:16 435.800 - 435.900 CW/SSB
Sapphire 22 May 18:45:58 18:49:20 17° 254° (WSW) 18:52:41 437.095 MHz 1200 baud AX-25 AFSK
Hamsat 22 May 18:48:45 18:52:31 32° 66° (ENE) 18:56:19 145.90 MHz
AO-7 22 May 19:01:01 19:07:52 28° 269° (W) 19:14:48 29.400 - 29.500 MHz
HO-68 22 May 19:19:04 19:23:02 16° 38° (NE) 19:27:00 435.675 MHz FM
UOSAT-12 22 May 19:26:42 19:31:03 39° 35° (NE) 19:35:23 437.025 FM, 437.400 FM
SO-67 22 May 19:33:11 19:36:17 28° 67° (ENE) 19:39:24 435.3500 MHz FM
JAS-2 22 May 19:38:16 19:42:28 16° 40° (NE) 19:46:37 435.800 - 435.900 CW/SSB, 435.910 FM
RS-15 22 May 19:54:54 20:06:34 59° 328° (NNW) 20:17:44 29.354 - 29.394 USB, Beacon 29.352 USB
STRAND 1 22 May 20:06:50 20:12:00 72° 104° (ESE) 20:17:08 ?
JAS-1B 22 May 20:21:02 20:30:05 84° 254° (WSW) 20:37:42 435.800 - 435.900 CW/SSB
Hamsat 22 May 20:24:47 20:28:36 32° 265° (W) 20:32:28 145.90 MHz
Oscar 11 22 May 20:48:24 20:50:44 14° 55° (NE) 20:53:05 145.825 FM, Beacon 2401.500 USB
OPAL 22 May 20:59:24 21:02:39 17° 50° (NE) 21:05:52 ?
HO-68 22 May 21:02:24 21:09:12 51° 61° (ENE) 21:16:03 435.675 MHz FM
SO-67 22 May 21:06:41 21:09:45 27° 265° (W) 21:12:51 435.3500 MHz FM
UOSAT-12 22 May 21:06:56 21:11:20 46° 236° (SW) 21:15:44 437.025 FM, 437.400 FM
JAS-2 22 May 21:18:25 21:25:47 47° 62° (ENE) 21:33:05 435.800 - 435.900 CW/SSB, 435.910 FM
STRAND 1 22 May 21:46:50 21:50:45 23° 303° (WNW) 21:54:40 ?
KITSAT 1 22 May 22:06:01 22:08:40 12° 96° (E) 22:11:20 435.175 FM
AO-40 22 May 22:09:42 04:11:26 35° 177° (S) 09:48:35 Beacon 2401.320
RS-15 22 May 22:10:45 22:21:37 43° 0° (N) 22:32:02 29.354 - 29.394 USB, Beacon 29.352 USB
JAS-1B 22 May 22:14:52 22:21:30 23° 272° (W) 22:27:27 435.800 - 435.900 CW/SSB
Oscar 11 22 May 22:22:01 22:26:21 89° 74° (ENE) 22:30:43 145.825 FM, Beacon 2401.500 USB
OPAL 22 May 22:35:38 22:40:49 78° 69° (ENE) 22:45:59 ?
HO-68 22 May 22:50:20 22:57:03 43° 262° (W) 23:03:50 435.675 MHz FM
JAS-2 22 May 23:03:07 23:10:42 53° 262° (W) 23:18:20 435.800 - 435.900 CW/SSB, 435.910 FM
KITSAT 1 22 May 23:54:28 00:02:11 53° 117° (ESE) 00:09:58 435.175 FM
Oscar 11 23 May 00:01:26 00:03:15 12° 274° (W) 00:05:05 145.825 FM, Beacon 2401.500 USB
OPAL 23 May 00:16:43 00:20:18 19° 268° (W) 00:23:53 ?
RS-15 23 May 00:25:18 00:36:33 60° 33° (NNE) 00:47:21 29.354 - 29.394 USB, Beacon 29.352 USB
JAS-2 23 May 00:54:21 00:57:29 13° 284° (WNW) 01:00:37 435.800 - 435.900 CW/SSB, 435.910 FM
MaSat-1 23 May 01:35:53 01:40:30 20° 106° (ESE) 01:44:34 437.345 MHz
KITSAT 1 23 May 01:49:43 01:57:39 56° 321° (NW) 02:05:39 435.175 FM
Uribyol 2 23 May 02:00:35 02:02:03 11° 83° (E) 02:03:30 436.500 FM
Oscar 19 23 May 02:02:35 02:05:01 13° 85° (E) 02:07:27 437.125 CW, 437.150 USB
RS-15 23 May 02:38:14 02:49:07 61° 241° (WSW) 02:59:41 29.354 - 29.394 USB, Beacon 29.352 USB
Oscar 16 23 May 02:40:31 02:45:07 31° 94° (E) 02:49:39 437.025 USB, Beacon 2401.1428
AO-27 23 May 02:50:07 02:54:37 28° 93° (E) 02:59:05 436.795 MHz FM
ITAMSAT 1 23 May 02:56:38 03:01:16 31° 94° (E) 03:05:52 435.822 SSB
MaSat-1 23 May 03:15:28 03:22:15 84° 121° (ESE) 03:27:37 437.345 MHz
Uosat F 23 May 03:36:37 03:38:34 12° 85° (E) 03:40:30 435.120 FM
Uribyol 2 23 May 03:37:20 03:42:34 67° 103° (ESE) 03:47:47 436.500 FM
Oscar 19 23 May 03:40:03 03:45:16 79° 104° (ESE) 03:50:26 437.125 CW, 437.150 USB
AO-Echo 23 May 03:41:55 03:45:59 28° 94° (E) 03:50:05 ?
KITSAT 1 23 May 03:47:51 03:54:53 31° 349° (NNW) 04:01:57 435.175 FM
Oscar 16 23 May 04:19:43 04:24:41 47° 294° (WNW) 04:29:36 437.025 USB, Beacon 2401.1428
ISS 23 May 04:28:20 04:31:23 34° 152° (SSE) 04:34:28 145.800 FM
AO-27 23 May 04:29:21 04:34:25 52° 293° (WNW) 04:39:29 436.795 MHz FM
TMSAT-1 23 May 04:33:49 04:38:02 23° 90° (E) 04:42:12 436.925 FM
ITAMSAT 1 23 May 04:35:58 04:40:58 47° 294° (WNW) 04:45:58 435.822 SSB
RS-15 23 May 04:53:00 04:58:50 16° 266° (W) 05:04:37 29.354 - 29.394 USB, Beacon 29.352 USB
Gurwin Techsat 1B 23 May 04:55:21 05:00:30 47° 99° (E) 05:05:36 435.225 FM
MaSat-1 23 May 04:59:36 05:04:50 27° 318° (NW) 05:09:10 437.345 MHz
AO-7 23 May 05:02:21 05:08:03 20° 85° (E) 05:13:43 29.400 - 29.500 MHz
Uosat F 23 May 05:13:13 05:18:17 75° 104° (ESE) 05:23:19 435.120 FM
Uribyol 2 23 May 05:17:31 05:21:40 24° 303° (WNW) 05:25:49 436.500 FM
Oscar 19 23 May 05:20:19 05:24:06 21° 304° (NW) 05:27:51 437.125 CW, 437.150 USB
AO-Echo 23 May 05:20:29 05:25:00 45° 293° (WNW) 05:29:34 ?
KITSAT 1 23 May 05:45:33 05:52:47 34° 18° (NNE) 06:00:02 435.175 FM
STRAND 1 23 May 05:50:12 05:54:39 31° 61° (ENE) 05:59:07 ?
Oscar 16 23 May 06:02:01 06:02:52 10° 315° (NW) 06:03:44 437.025 USB, Beacon 2401.1428
ISS 23 May 06:04:34 06:07:54 85° 172° (S) 06:11:17 145.800 FM
AO-27 23 May 06:11:08 06:12:52 12° 313° (NW) 06:14:35 436.795 MHz FM
TMSAT-1 23 May 06:13:09 06:18:26 64° 290° (WNW) 06:23:40 436.925 FM
ITAMSAT 1 23 May 06:18:12 06:19:20 11° 315° (NW) 06:20:27 435.822 SSB
Gurwin Techsat 1B 23 May 06:35:38 06:40:21 33° 298° (WNW) 06:45:03 435.225 FM
MaSat-1 23 May 06:47:22 06:48:32 11° 341° (NNW) 06:49:39 437.345 MHz
Saudisat 1A 23 May 06:50:27 06:54:53 51° 125° (SE) 06:59:22 436.775 MHz
Uosat F 23 May 06:52:54 06:56:36 21° 304° (NW) 07:00:19 435.120 FM
AO-7 23 May 06:53:54 07:02:19 75° 108° (ESE) 07:10:41 29.400 - 29.500 MHz
PCSat 23 May 07:17:27 07:20:58 18° 106° (ESE) 07:24:30 145.825 MHz
STRAND 1 23 May 07:28:48 07:33:42 47° 261° (W) 07:38:39 ?
ISS 23 May 07:41:17 07:44:39 79° 192° (SSW) 07:48:01 145.800 FM
KITSAT 1 23 May 07:41:33 07:49:41 69° 44° (NE) 07:57:48 435.175 FM
Sapphire 23 May 07:49:04 07:53:39 29° 112° (ESE) 07:58:16 437.095 MHz 1200 baud AX-25 AFSK
TMSAT-1 23 May 07:54:46 07:57:26 14° 311° (NW) 08:00:05 436.925 FM
JAS-1B 23 May 08:02:37 08:06:32 17° 84° (E) 08:10:14 435.800 - 435.900 CW/SSB
Hamsat 23 May 08:05:28 08:09:24 32° 95° (E) 08:13:20 145.90 MHz
SO-50 23 May 08:28:09 08:30:07 12° 109° (ESE) 08:32:05 436.795 FM
SO-67 23 May 08:28:17 08:30:49 18° 91° (E) 08:33:20 435.3500 MHz FM
Saudisat 1A 23 May 08:30:29 08:34:46 37° 326° (NW) 08:39:06 436.775 MHz
AO-7 23 May 08:47:13 08:54:34 36° 310° (NW) 09:01:55 29.400 - 29.500 MHz
PCSat 23 May 08:58:14 09:03:40 87° 126° (SE) 09:09:09 145.825 MHz
ISS 23 May 09:18:09 09:21:06 29° 211° (SSW) 09:24:03 145.800 FM
Sapphire 23 May 09:31:24 09:36:46 62° 313° (NW) 09:42:11 437.095 MHz 1200 baud AX-25 AFSK
KITSAT 1 23 May 09:37:21 09:44:44 40° 248° (WSW) 09:52:06 435.175 FM
Hamsat 23 May 09:41:33 09:45:30 34° 294° (WNW) 09:49:28 145.90 MHz
JAS-1B 23 May 09:52:01 09:58:23 86° 288° (WNW) 10:04:05 435.800 - 435.900 CW/SSB
SO-67 23 May 10:01:04 10:04:30 42° 290° (WNW) 10:07:54 435.3500 MHz FM
SO-50 23 May 10:05:12 10:09:57 69° 128° (SE) 10:14:38 436.795 FM
Oscar 11 23 May 10:06:36 10:08:13 12° 86° (E) 10:09:49 145.825 FM, Beacon 2401.500 USB
JAS-2 23 May 10:08:21 10:13:48 23° 85° (E) 10:18:45 435.800 - 435.900 CW/SSB, 435.910 FM
HO-68 23 May 10:11:38 10:17:48 30° 93° (E) 10:23:56 435.675 MHz FM
Saudisat 1A 23 May 10:12:32 10:15:42 18° 349° (N) 10:18:51 436.775 MHz
MaSat-1 23 May 10:13:56 10:16:55 20° 35° (NE) 10:19:26 437.345 MHz
AO-7 23 May 10:41:04 10:45:02 15° 335° (NNW) 10:49:01 29.400 - 29.500 MHz
OPAL 23 May 10:42:21 10:44:20 12° 87° (E) 10:46:20 ?
PCSat 23 May 10:43:08 10:47:47 28° 329° (NNW) 10:52:27 145.825 MHz
Sapphire 23 May 11:17:05 11:21:17 22° 336° (NNW) 11:25:30 437.095 MHz 1200 baud AX-25 AFSK
UOSAT-12 23 May 11:25:23 11:27:49 14° 111° (ESE) 11:30:15 437.025 FM, 437.400 FM
Oscar 11 23 May 11:40:44 11:45:09 86° 105° (ESE) 11:49:32 145.825 FM, Beacon 2401.500 USB

Developed and maintained by Chris Peat, Heavens-Above GmbH. Please read the updated FAQ before sending e-mail. Imprint. DLR
